Time,TemperatureF,DewpointF,PressureIn,WindDirection,WindDirectionDegrees,WindSpeedMPH,WindSpeedGustMPH,Humidity,HourlyPrecipIn,Conditions,Clouds,dailyrainin,SoftwareType,DateUTC
2013-02-15 00:00:00,49.2,46.6,30.05,WSW,244,0.0,4.0,91,0.00,,,0.00,WUHU216DAVISVP2,2013-02-15 05:00:00,
2013-02-15 00:05:00,49.0,46.4,30.04,WSW,246,0.0,6.0,91,0.00,,,0.00,WUHU216DAVISVP2,2013-02-15 05:05:00,
2013-02-15 00:10:00,48.9,46.3,30.05,WNW,292,1.0,6.0,91,0.00,,,0.00,WUHU216DAVISVP2,2013-02-15 05:10:00,
2013-02-15 00:15:00,48.8,46.0,30.04,SW,236,1.0,4.0,90,0.00,,,0.00,WUHU216DAVISVP2,2013-02-15 05:15:00,
2013-02-15 00:20:00,48.8,46.2,30.04,SW,236,1.0,4.0,91,0.00,,,0.00,WUHU216DAVISVP2,2013-02-15 05:20:00,
2013-02-15 00:25:00,48.7,45.9,30.05,WSW,250,0.0,10.0,90,0.00,,,0.00,WUHU216DAVISVP2,2013-02-15 05:25:00,
2013-02-15 00:30:00,48.6,45.8,30.05,WSW,250,1.0,10.0,90,0.00,,,0.00,WUHU216DAVISVP2,2013-02-15 05:30:00,
2013-02-15 00:35:00,48.5,45.7,30.06,WSW,245,4.0,5.0,90,0.00,,,0.00,WUHU216DAVISVP2,2013-02-15 05:35:00,
2013-02-15 00:40:00,48.4,45.6,30.05,WSW,240,0.0,6.0,90,0.00,,,0.00,WUHU216DAVISVP2,2013-02-15 05:40:00,
2013-02-15 00:45:00,48.4,45.6,30.04,WSW,246,2.0,6.0,90,0.00,,,0.00,WUHU216DAVISVP2,2013-02-15 05:45:00,
2013-02-15 00:50:00,48.2,45.4,30.05,WSW,249,0.0,5.0,90,0.00,,,0.00,WUHU216DAVISVP2,2013-02-15 05:50:00,
2013-02-15 00:55:00,48.1,45.3,30.04,WSW,246,0.0,5.0,90,0.00,,,0.00,WUHU216DAVISVP2,2013-02-15 05:55:00,
2013-02-15 01:00:00,48.1,45.3,30.04,West,267,0.0,6.0,90,0.00,,,0.00,WUHU216DAVISVP2,2013-02-15 06:00:00,
2013-02-15 01:05:00,47.9,45.1,30.04,WSW,241,1.0,6.0,90,0.00,,,0.00,WUHU216DAVISVP2,2013-02-15 06:05:00,
2013-02-15 01:10:00,47.9,44.8,30.04,WSW,238,0.0,6.0,89,0.00,,,0.00,WUHU216DAVISVP2,2013-02-15 06:10:00,
2013-02-15 01:15:00,47.8,45.0,30.04,West,263,1.0,6.0,90,0.00,,,0.00,WUHU216DAVISVP2,2013-02-15 06:15:00,
2013-02-15 01:20:00,47.8,45.0,30.04,WSW,253,0.0,5.0,90,0.00,,,0.00,WUHU216DAVISVP2,2013-02-15 06:20:00,
2013-02-15 01:25:00,47.7,44.9,30.04,WSW,247,0.0,5.0,90,0.00,,,0.00,WUHU216DAVISVP2,2013-02-15 06:25:00,
2013-02-15 01:30:00,47.6,44.8,30.04,WSW,251,0.0,4.0,90,0.00,,,0.00,WUHU216DAVISVP2,2013-02-15 06:30:00,
2013-02-15 01:35:00,47.5,44.7,30.04,WSW,242,0.0,4.0,90,0.00,,,0.00,WUHU216DAVISVP2,2013-02-15 06:35:00,
2013-02-15 01:40:00,47.5,45.0,30.05,WSW,242,0.0,4.0,91,0.00,,,0.00,WUHU216DAVISVP2,2013-02-15 06:40:00,
2013-02-15 01:45:00,47.3,44.8,30.05,WSW,245,0.0,3.0,91,0.00,,,0.00,WUHU216DAVISVP2,2013-02-15 06:45:00,
2013-02-15 01:50:00,47.2,44.7,30.04,WSW,245,0.0,3.0,91,0.00,,,0.00,WUHU216DAVISVP2,2013-02-15 06:50:00,
2013-02-15 01:55:00,47.2,44.7,30.04,WSW,245,0.0,1.0,91,0.00,,,0.00,WUHU216DAVISVP2,2013-02-15 06:55:00,
2013-02-15 02:00:00,47.1,44.6,30.05,WSW,245,0.0,0.0,91,0.00,,,0.00,WUHU216DAVISVP2,2013-02-15 07:00:00,
2013-02-15 02:05:00,46.9,44.4,30.05,WSW,245,0.0,0.0,91,0.00,,,0.00,WUHU216DAVISVP2,2013-02-15 07:05:00,
2013-02-15 02:10:00,46.7,44.2,30.04,WSW,245,0.0,0.0,91,0.00,,,0.00,WUHU216DAVISVP2,2013-02-15 07:10:00,
2013-02-15 02:15:00,46.5,44.0,30.05,WSW,245,0.0,0.0,91,0.00,,,0.00,WUHU216DAVISVP2,2013-02-15 07:15:00,
2013-02-15 02:20:00,46.3,44.1,30.05,WSW,245,0.0,0.0,92,0.00,,,0.00,WUHU216DAVISVP2,2013-02-15 07:20:00,
2013-02-15 02:25:00,46.2,44.2,30.04,WSW,245,0.0,0.0,93,0.00,,,0.00,WUHU216DAVISVP2,2013-02-15 07:25:00,
2013-02-15 02:30:00,46.2,44.2,30.04,WSW,245,0.0,0.0,93,0.00,,,0.00,WUHU216DAVISVP2,2013-02-15 07:30:00,
2013-02-15 02:35:00,46.2,44.2,30.04,WSW,245,0.0,1.0,93,0.00,,,0.00,WUHU216DAVISVP2,2013-02-15 07:35:00,
2013-02-15 02:40:00,46.2,44.2,30.04,WSW,245,0.0,1.0,93,0.00,,,0.00,WUHU216DAVISVP2,2013-02-15 07:40:00,
2013-02-15 02:45:00,46.2,44.5,30.04,WSW,245,0.0,3.0,94,0.00,,,0.00,WUHU216DAVISVP2,2013-02-15 07:45:00,
2013-02-15 02:50:00,46.2,44.5,30.03,WSW,245,0.0,3.0,94,0.00,,,0.00,WUHU216DAVISVP2,2013-02-15 07:50:00,
2013-02-15 02:55:00,46.2,44.5,30.03,WSW,240,0.0,3.0,94,0.00,,,0.00,WUHU216DAVISVP2,2013-02-15 07:55:00,
2013-02-15 03:00:00,46.2,44.5,30.04,WSW,240,0.0,3.0,94,0.00,,,0.00,WUHU216DAVISVP2,2013-02-15 08:00:00,
2013-02-15 03:05:00,46.3,44.6,30.04,WSW,247,2.0,3.0,94,0.00,,,0.00,WUHU216DAVISVP2,2013-02-15 08:05:00,
2013-02-15 03:10:00,46.4,44.7,30.04,WSW,247,0.0,3.0,94,0.00,,,0.00,WUHU216DAVISVP2,2013-02-15 08:10:00,
2013-02-15 03:15:00,46.5,44.8,30.04,WSW,247,0.0,3.0,94,0.00,,,0.00,WUHU216DAVISVP2,2013-02-15 08:15:00,
2013-02-15 03:20:00,46.5,44.8,30.05,WSW,247,0.0,2.0,94,0.00,,,0.00,WUHU216DAVISVP2,2013-02-15 08:20:00,
2013-02-15 03:25:00,46.5,44.8,30.05,WSW,247,0.0,0.0,94,0.00,,,0.00,WUHU216DAVISVP2,2013-02-15 08:25:00,
2013-02-15 03:30:00,46.5,44.8,30.04,WSW,247,0.0,2.0,94,0.00,,,0.00,WUHU216DAVISVP2,2013-02-15 08:30:00,
2013-02-15 03:35:00,46.5,44.8,30.04,WSW,248,2.0,3.0,94,0.00,,,0.00,WUHU216DAVISVP2,2013-02-15 08:35:00,
2013-02-15 03:40:00,46.6,45.2,30.03,WSW,243,0.0,5.0,95,0.00,,,0.00,WUHU216DAVISVP2,2013-02-15 08:40:00,
2013-02-15 03:45:00,46.7,45.0,30.04,WSW,243,0.0,5.0,94,0.00,,,0.00,WUHU216DAVISVP2,2013-02-15 08:45:00,
2013-02-15 03:50:00,46.7,45.0,30.05,WSW,243,0.0,2.0,94,0.00,,,0.00,WUHU216DAVISVP2,2013-02-15 08:50:00,
2013-02-15 03:55:00,46.6,44.9,30.04,WSW,243,0.0,0.0,94,0.00,,,0.00,WUHU216DAVISVP2,2013-02-15 08:55:00,
2013-02-15 04:00:00,46.7,45.0,30.04,WSW,243,0.0,0.0,94,0.00,,,0.00,WUHU216DAVISVP2,2013-02-15 09:00:00,
2013-02-15 04:05:00,46.5,44.8,30.04,WSW,243,0.0,0.0,94,0.00,,,0.00,WUHU216DAVISVP2,2013-02-15 09:05:00,
2013-02-15 04:10:00,46.4,44.7,30.04,WSW,249,1.0,3.0,94,0.00,,,0.00,WUHU216DAVISVP2,2013-02-15 09:10:00,
2013-02-15 04:15:00,46.2,44.5,30.04,WSW,248,0.0,3.0,94,0.00,,,0.00,WUHU216DAVISVP2,2013-02-15 09:15:00,
2013-02-15 04:20:00,46.2,44.8,30.05,WSW,248,0.0,3.0,95,0.00,,,0.00,WUHU216DAVISVP2,2013-02-15 09:20:00,
2013-02-15 04:25:00,46.1,44.7,30.04,WSW,248,0.0,0.0,95,0.00,,,0.00,WUHU216DAVISVP2,2013-02-15 09:25:00,
2013-02-15 04:30:00,46.1,44.4,30.05,WSW,248,0.0,0.0,94,0.00,,,0.00,WUHU216DAVISVP2,2013-02-15 09:30:00,
2013-02-15 04:35:00,46.0,44.3,30.05,WSW,248,0.0,0.0,94,0.00,,,0.00,WUHU216DAVISVP2,2013-02-15 09:35:00,
2013-02-15 04:40:00,45.9,44.5,30.05,WSW,248,0.0,1.0,95,0.00,,,0.00,WUHU216DAVISVP2,2013-02-15 09:40:00,
2013-02-15 04:45:00,45.8,44.4,30.05,WSW,246,1.0,3.0,95,0.00,,,0.00,WUHU216DAVISVP2,2013-02-15 09:45:00,
2013-02-15 04:50:00,45.8,44.4,30.06,West,259,2.0,3.0,95,0.00,,,0.00,WUHU216DAVISVP2,2013-02-15 09:50:00,
2013-02-15 04:55:00,45.8,44.4,30.06,WSW,248,2.0,4.0,95,0.00,,,0.00,WUHU216DAVISVP2,2013-02-15 09:55:00,
2013-02-15 05:00:00,45.8,44.4,30.07,WSW,245,1.0,4.0,95,0.00,,,0.00,WUHU216DAVISVP2,2013-02-15 10:00:00,
2013-02-15 05:05:00,45.8,44.4,30.06,WSW,248,0.0,4.0,95,0.00,,,0.00,WUHU216DAVISVP2,2013-02-15 10:05:00,
2013-02-15 05:10:00,45.8,44.4,30.07,WSW,241,0.0,4.0,95,0.00,,,0.00,WUHU216DAVISVP2,2013-02-15 10:10:00,
2013-02-15 05:15:00,45.8,44.4,30.07,WSW,258,3.0,4.0,95,0.00,,,0.00,WUHU216DAVISVP2,2013-02-15 10:15:00,
2013-02-15 05:20:00,45.6,43.9,30.06,WSW,240,0.0,5.0,94,0.00,,,0.00,WUHU216DAVISVP2,2013-02-15 10:20:00,
2013-02-15 05:25:00,45.6,43.9,30.07,WSW,239,0.0,5.0,94,0.00,,,0.00,WUHU216DAVISVP2,2013-02-15 10:25:00,
2013-02-15 05:30:00,45.4,43.7,30.06,West,259,0.0,6.0,94,0.00,,,0.00,WUHU216DAVISVP2,2013-02-15 10:30:00,
2013-02-15 05:35:00,45.4,43.7,30.06,WSW,238,2.0,6.0,94,0.00,,,0.00,WUHU216DAVISVP2,2013-02-15 10:35:00,
2013-02-15 05:40:00,45.3,43.6,30.05,WSW,245,2.0,5.0,94,0.00,,,0.00,WUHU216DAVISVP2,2013-02-15 10:40:00,
2013-02-15 05:45:00,45.2,43.5,30.06,SW,236,2.0,4.0,94,0.00,,,0.00,WUHU216DAVISVP2,2013-02-15 10:45:00,
2013-02-15 05:50:00,45.1,43.4,30.06,WNW,294,4.0,4.0,94,0.00,,,0.00,WUHU216DAVISVP2,2013-02-15 10:50:00,
2013-02-15 05:55:00,45.0,43.3,30.06,WSW,246,0.0,5.0,94,0.00,,,0.00,WUHU216DAVISVP2,2013-02-15 10:55:00,
2013-02-15 06:00:00,44.9,43.2,30.06,SW,234,0.0,5.0,94,0.00,,,0.00,WUHU216DAVISVP2,2013-02-15 11:00:00,
2013-02-15 06:05:00,44.8,43.1,30.06,SW,230,3.0,5.0,94,0.00,,,0.00,WUHU216DAVISVP2,2013-02-15 11:05:00,
2013-02-15 06:10:00,44.6,42.9,30.06,WSW,245,0.0,4.0,94,0.00,,,0.00,WUHU216DAVISVP2,2013-02-15 11:10:00,
2013-02-15 06:15:00,44.5,42.8,30.06,SW,236,0.0,4.0,94,0.00,,,0.00,WUHU216DAVISVP2,2013-02-15 11:15:00,
2013-02-15 06:20:00,44.4,42.7,30.06,SW,227,1.0,4.0,94,0.00,,,0.00,WUHU216DAVISVP2,2013-02-15 11:20:00,
2013-02-15 06:25:00,44.4,42.7,30.06,West,275,1.0,4.0,94,0.00,,,0.00,WUHU216DAVISVP2,2013-02-15 11:25:00,
2013-02-15 06:30:00,44.3,42.6,30.06,WSW,254,1.0,4.0,94,0.00,,,0.00,WUHU216DAVISVP2,2013-02-15 11:30:00,
2013-02-15 06:35:00,44.3,42.6,30.06,SW,236,4.0,4.0,94,0.00,,,0.00,WUHU216DAVISVP2,2013-02-15 11:35:00,
2013-02-15 06:40:00,44.2,42.5,30.06,NW,304,0.0,5.0,94,0.00,,,0.00,WUHU216DAVISVP2,2013-02-15 11:40:00,
2013-02-15 06:45:00,44.2,42.5,30.06,SW,234,4.0,5.0,94,0.00,,,0.00,WUHU216DAVISVP2,2013-02-15 11:45:00,
2013-02-15 06:50:00,44.2,42.5,30.07,WSW,242,2.0,5.0,94,0.00,,,0.00,WUHU216DAVISVP2,2013-02-15 11:50:00,
2013-02-15 06:55:00,44.2,42.5,30.07,WSW,247,0.0,4.0,94,0.00,,,0.00,WUHU216DAVISVP2,2013-02-15 11:55:00,
2013-02-15 07:00:00,44.2,42.5,30.07,WSW,244,0.0,6.0,94,0.00,,,0.00,WUHU216DAVISVP2,2013-02-15 12:00:00,
2013-02-15 07:05:00,44.1,42.4,30.07,WSW,246,2.0,6.0,94,0.00,,,0.00,WUHU216DAVISVP2,2013-02-15 12:05:00,
2013-02-15 07:10:00,44.0,42.3,30.07,WSW,242,0.0,4.0,94,0.00,,,0.00,WUHU216DAVISVP2,2013-02-15 12:10:00,
2013-02-15 07:15:00,44.0,42.6,30.07,WSW,246,2.0,4.0,95,0.00,,,0.00,WUHU216DAVISVP2,2013-02-15 12:15:00,
2013-02-15 07:20:00,43.9,42.5,30.07,WSW,249,0.0,4.0,95,0.00,,,0.00,WUHU216DAVISVP2,2013-02-15 12:20:00,
2013-02-15 07:25:00,43.9,42.5,30.08,WSW,240,0.0,3.0,95,0.00,,,0.00,WUHU216DAVISVP2,2013-02-15 12:25:00,
2013-02-15 07:30:00,43.9,42.5,30.08,WSW,240,0.0,3.0,95,0.00,,,0.00,WUHU216DAVISVP2,2013-02-15 12:30:00,
2013-02-15 07:35:00,44.0,42.6,30.08,WSW,246,2.0,4.0,95,0.00,,,0.00,WUHU216DAVISVP2,2013-02-15 12:35:00,
2013-02-15 07:39:00,44.1,42.7,30.08,WSW,244,0.0,4.0,95,0.00,,,0.00,WUHU216DAVISVP2,2013-02-15 12:39:00,
2013-02-15 07:44:00,44.3,42.9,30.08,WSW,243,0.0,5.0,95,0.00,,,0.00,WUHU216DAVISVP2,2013-02-15 12:44:00,
2013-02-15 07:49:00,44.4,43.0,30.08,WSW,246,1.0,5.0,95,0.00,,,0.00,WUHU216DAVISVP2,2013-02-15 12:49:00,
2013-02-15 07:54:00,44.6,43.2,30.09,West,265,0.0,4.0,95,0.00,,,0.00,WUHU216DAVISVP2,2013-02-15 12:54:00,
2013-02-15 07:59:00,44.9,43.5,30.09,SW,236,0.0,4.0,95,0.00,,,0.00,WUHU216DAVISVP2,2013-02-15 12:59:00,
2013-02-15 08:04:00,45.1,43.7,30.09,SW,236,0.0,4.0,95,0.00,,,0.00,WUHU216DAVISVP2,2013-02-15 13:04:00,
2013-02-15 08:09:00,45.5,44.1,30.09,WSW,250,0.0,4.0,95,0.00,,,0.00,WUHU216DAVISVP2,2013-02-15 13:09:00,
2013-02-15 08:14:00,45.7,44.3,30.09,WSW,250,0.0,4.0,95,0.00,,,0.00,WUHU216DAVISVP2,2013-02-15 13:14:00,
2013-02-15 08:19:00,46.1,44.7,30.10,WSW,249,0.0,3.0,95,0.00,,,0.00,WUHU216DAVISVP2,2013-02-15 13:19:00,
2013-02-15 08:24:00,46.4,45.0,30.10,WSW,250,0.0,3.0,95,0.00,,,0.00,WUHU216DAVISVP2,2013-02-15 13:24:00,
2013-02-15 08:29:00,46.8,45.4,30.10,WSW,258,0.0,3.0,95,0.00,,,0.00,WUHU216DAVISVP2,2013-02-15 13:29:00,
2013-02-15 08:34:00,47.2,45.5,30.10,WSW,258,0.0,2.0,94,0.00,,,0.00,WUHU216DAVISVP2,2013-02-15 13:34:00,
2013-02-15 08:39:00,47.7,46.0,30.10,WSW,258,0.0,2.0,94,0.00,,,0.00,WUHU216DAVISVP2,2013-02-15 13:39:00,
2013-02-15 08:44:00,48.2,46.5,30.10,WSW,239,0.0,5.0,94,0.00,,,0.00,WUHU216DAVISVP2,2013-02-15 13:44:00,
2013-02-15 08:49:00,48.6,46.6,30.10,WSW,248,2.0,5.0,93,0.00,,,0.00,WUHU216DAVISVP2,2013-02-15 13:49:00,
2013-02-15 08:54:00,48.8,46.8,30.10,WSW,255,1.0,4.0,93,0.00,,,0.00,WUHU216DAVISVP2,2013-02-15 13:54:00,
2013-02-15 08:59:00,49.4,47.4,30.10,NW,319,0.0,3.0,93,0.00,,,0.00,WUHU216DAVISVP2,2013-02-15 13:59:00,
2013-02-15 09:04:00,49.8,47.5,30.10,SW,231,1.0,5.0,92,0.00,,,0.00,WUHU216DAVISVP2,2013-02-15 14:04:00,
2013-02-15 09:09:00,50.2,47.9,30.10,SW,230,0.0,5.0,92,0.00,,,0.00,WUHU216DAVISVP2,2013-02-15 14:09:00,
2013-02-15 09:14:00,50.6,48.3,30.10,WSW,250,2.0,4.0,92,0.00,,,0.00,WUHU216DAVISVP2,2013-02-15 14:14:00,
2013-02-15 09:19:00,51.1,48.5,30.10,WSW,238,0.0,4.0,91,0.00,,,0.00,WUHU216DAVISVP2,2013-02-15 14:19:00,
2013-02-15 09:24:00,51.5,48.6,30.10,West,267,3.0,4.0,90,0.00,,,0.00,WUHU216DAVISVP2,2013-02-15 14:24:00,
2013-02-15 09:29:00,52.0,49.1,30.10,West,273,0.0,4.0,90,0.00,,,0.00,WUHU216DAVISVP2,2013-02-15 14:29:00,
2013-02-15 09:34:00,52.4,49.2,30.10,WSW,237,4.0,5.0,89,0.00,,,0.00,WUHU216DAVISVP2,2013-02-15 14:34:00,
2013-02-15 09:39:00,52.9,49.7,30.10,NNW,327,2.0,5.0,89,0.00,,,0.00,WUHU216DAVISVP2,2013-02-15 14:39:00,
2013-02-15 09:44:00,53.4,49.9,30.10,West,276,3.0,4.0,88,0.00,,,0.00,WUHU216DAVISVP2,2013-02-15 14:44:00,
2013-02-15 09:49:00,53.8,50.0,30.10,WSW,252,1.0,4.0,87,0.00,,,0.00,WUHU216DAVISVP2,2013-02-15 14:49:00,
2013-02-15 09:54:00,54.1,49.7,30.10,WSW,240,0.0,5.0,85,0.00,,,0.00,WUHU216DAVISVP2,2013-02-15 14:54:00,
2013-02-15 09:59:00,54.4,50.0,30.10,NNW,333,2.0,6.0,85,0.00,,,0.00,WUHU216DAVISVP2,2013-02-15 14:59:00,
2013-02-15 10:04:00,54.7,50.0,30.10,NNW,345,0.0,6.0,84,0.00,,,0.00,WUHU216DAVISVP2,2013-02-15 15:04:00,
2013-02-15 10:09:00,55.0,49.9,30.10,West,279,2.0,7.0,83,0.00,,,0.00,WUHU216DAVISVP2,2013-02-15 15:09:00,
2013-02-15 10:14:00,55.2,50.1,30.10,West,281,0.0,7.0,83,0.00,,,0.00,WUHU216DAVISVP2,2013-02-15 15:14:00,
2013-02-15 10:19:00,55.4,50.3,30.10,WNW,284,0.0,4.0,83,0.00,,,0.00,WUHU216DAVISVP2,2013-02-15 15:19:00,
2013-02-15 10:24:00,55.4,50.0,30.10,NW,306,0.0,4.0,82,0.00,,,0.00,WUHU216DAVISVP2,2013-02-15 15:24:00,
2013-02-15 10:29:00,55.5,50.1,30.10,WNW,295,0.0,5.0,82,0.00,,,0.00,WUHU216DAVISVP2,2013-02-15 15:29:00,
2013-02-15 10:34:00,55.7,50.0,30.10,WNW,295,0.0,5.0,81,0.00,,,0.00,WUHU216DAVISVP2,2013-02-15 15:34:00,
2013-02-15 10:39:00,55.9,50.5,30.10,NW,312,0.0,5.0,82,0.00,,,0.00,WUHU216DAVISVP2,2013-02-15 15:39:00,
2013-02-15 10:44:00,56.1,50.4,30.10,NNW,331,1.0,5.0,81,0.00,,,0.00,WUHU216DAVISVP2,2013-02-15 15:44:00,
2013-02-15 10:49:00,56.2,50.5,30.10,WNW,283,0.0,5.0,81,0.00,,,0.00,WUHU216DAVISVP2,2013-02-15 15:49:00,
2013-02-15 10:54:00,56.4,50.4,30.10,NE,34,0.0,5.0,80,0.00,,,0.00,WUHU216DAVISVP2,2013-02-15 15:54:00,
2013-02-15 10:59:00,56.5,50.5,30.10,WNW,300,0.0,3.0,80,0.00,,,0.00,WUHU216DAVISVP2,2013-02-15 15:59:00,
2013-02-15 11:04:00,56.8,50.7,30.10,NNW,338,4.0,5.0,80,0.00,,,0.00,WUHU216DAVISVP2,2013-02-15 16:04:00,
2013-02-15 11:09:00,57.0,50.6,30.10,WNW,303,0.0,6.0,79,0.00,,,0.00,WUHU216DAVISVP2,2013-02-15 16:09:00,
2013-02-15 11:14:00,57.3,50.6,30.10,NNW,331,0.0,6.0,78,0.00,,,0.00,WUHU216DAVISVP2,2013-02-15 16:14:00,
2013-02-15 11:19:00,57.4,50.7,30.10,WNW,287,0.0,5.0,78,0.00,,,0.00,WUHU216DAVISVP2,2013-02-15 16:19:00,
2013-02-15 11:24:00,57.3,50.6,30.09,WSW,242,2.0,6.0,78,0.00,,,0.00,WUHU216DAVISVP2,2013-02-15 16:24:00,
2013-02-15 11:29:00,57.3,49.9,30.09,WNW,293,1.0,7.0,76,0.00,,,0.00,WUHU216DAVISVP2,2013-02-15 16:29:00,
2013-02-15 11:34:00,57.3,50.2,30.09,NW,311,0.0,9.0,77,0.00,,,0.00,WUHU216DAVISVP2,2013-02-15 16:34:00,
2013-02-15 11:39:00,57.6,50.2,30.09,NNW,333,2.0,9.0,76,0.00,,,0.00,WUHU216DAVISVP2,2013-02-15 16:39:00,
2013-02-15 11:44:00,57.6,49.8,30.09,NE,41,0.0,7.0,75,0.00,,,0.00,WUHU216DAVISVP2,2013-02-15 16:44:00,
2013-02-15 11:49:00,58.0,50.6,30.09,NW,321,0.0,7.0,76,0.00,,,0.00,WUHU216DAVISVP2,2013-02-15 16:49:00,
2013-02-15 11:54:00,58.5,50.3,30.09,NNW,331,0.0,6.0,74,0.00,,,0.00,WUHU216DAVISVP2,2013-02-15 16:54:00,
2013-02-15 11:59:00,58.6,50.1,30.09,West,262,0.0,5.0,73,0.00,,,0.00,WUHU216DAVISVP2,2013-02-15 16:59:00,
2013-02-15 12:04:00,58.4,50.3,30.09,NW,323,0.0,5.0,74,0.00,,,0.00,WUHU216DAVISVP2,2013-02-15 17:04:00,
2013-02-15 12:09:00,58.1,50.0,30.09,NW,321,0.0,6.0,74,0.00,,,0.00,WUHU216DAVISVP2,2013-02-15 17:09:00,
2013-02-15 12:14:00,58.3,50.5,30.09,WSW,240,1.0,6.0,75,0.00,,,0.00,WUHU216DAVISVP2,2013-02-15 17:14:00,
2013-02-15 12:19:00,58.7,50.9,30.09,WNW,298,0.0,5.0,75,0.00,,,0.00,WUHU216DAVISVP2,2013-02-15 17:19:00,
2013-02-15 12:24:00,59.1,50.9,30.08,East,92,0.0,5.0,74,0.00,,,0.00,WUHU216DAVISVP2,2013-02-15 17:24:00,
2013-02-15 12:29:00,59.4,50.1,30.08,SW,233,1.0,6.0,71,0.00,,,0.00,WUHU216DAVISVP2,2013-02-15 17:29:00,
2013-02-15 12:34:00,59.2,50.3,30.08,NNW,329,1.0,6.0,72,0.00,,,0.00,WUHU216DAVISVP2,2013-02-15 17:34:00,
2013-02-15 12:39:00,59.1,50.6,30.07,NNW,335,0.0,5.0,73,0.00,,,0.00,WUHU216DAVISVP2,2013-02-15 17:39:00,
2013-02-15 12:44:00,59.3,50.4,30.07,West,277,1.0,4.0,72,0.00,,,0.00,WUHU216DAVISVP2,2013-02-15 17:44:00,
2013-02-15 12:49:00,59.9,50.2,30.07,NNW,331,0.0,4.0,70,0.00,,,0.00,WUHU216DAVISVP2,2013-02-15 17:49:00,
2013-02-15 12:54:00,60.3,51.0,30.07,NW,305,0.0,4.0,71,0.00,,,0.00,WUHU216DAVISVP2,2013-02-15 17:54:00,
2013-02-15 12:59:00,60.7,51.0,30.07,SSE,165,1.0,6.0,70,0.00,,,0.00,WUHU216DAVISVP2,2013-02-15 17:59:00,
2013-02-15 13:04:00,60.4,51.1,30.06,SSE,157,1.0,6.0,71,0.00,,,0.00,WUHU216DAVISVP2,2013-02-15 18:04:00,
2013-02-15 13:09:00,60.4,51.1,30.06,SSW,198,0.0,4.0,71,0.00,,,0.00,WUHU216DAVISVP2,2013-02-15 18:09:00,
2013-02-15 13:14:00,60.5,51.2,30.06,SW,225,0.0,5.0,71,0.00,,,0.00,WUHU216DAVISVP2,2013-02-15 18:14:00,
2013-02-15 13:19:00,61.0,51.3,30.06,WSW,251,6.0,7.0,70,0.00,,,0.00,WUHU216DAVISVP2,2013-02-15 18:19:00,
2013-02-15 13:24:00,60.8,51.1,30.06,SW,225,3.0,7.0,70,0.00,,,0.00,WUHU216DAVISVP2,2013-02-15 18:24:00,
2013-02-15 13:29:00,60.7,51.4,30.05,SW,230,4.0,7.0,71,0.00,,,0.00,WUHU216DAVISVP2,2013-02-15 18:29:00,
2013-02-15 13:34:00,60.5,50.8,30.05,WSW,254,0.0,7.0,70,0.00,,,0.00,WUHU216DAVISVP2,2013-02-15 18:34:00,
2013-02-15 13:39:00,60.5,51.2,30.05,NNW,338,0.0,6.0,71,0.00,,,0.00,WUHU216DAVISVP2,2013-02-15 18:39:00,
2013-02-15 13:44:00,60.6,50.5,30.05,West,264,0.0,7.0,69,0.00,,,0.00,WUHU216DAVISVP2,2013-02-15 18:44:00,
2013-02-15 13:49:00,60.5,51.2,30.04,NW,323,0.0,7.0,71,0.00,,,0.00,WUHU216DAVISVP2,2013-02-15 18:49:00,
2013-02-15 13:54:00,60.7,51.0,30.04,WSW,248,2.0,9.0,70,0.00,,,0.00,WUHU216DAVISVP2,2013-02-15 18:54:00,
2013-02-15 13:59:00,60.5,50.0,30.04,West,269,2.0,9.0,68,0.00,,,0.00,WUHU216DAVISVP2,2013-02-15 18:59:00,
2013-02-15 14:04:00,60.4,50.7,30.03,NNW,329,0.0,6.0,70,0.00,,,0.00,WUHU216DAVISVP2,2013-02-15 19:04:00,
2013-02-15 14:09:00,60.6,51.3,30.03,NW,307,1.0,5.0,71,0.00,,,0.00,WUHU216DAVISVP2,2013-02-15 19:09:00,
2013-02-15 14:14:00,60.8,50.7,30.03,NW,318,1.0,5.0,69,0.00,,,0.00,WUHU216DAVISVP2,2013-02-15 19:14:00,
2013-02-15 14:19:00,60.4,50.3,30.03,WNW,287,3.0,7.0,69,0.00,,,0.00,WUHU216DAVISVP2,2013-02-15 19:19:00,
2013-02-15 14:24:00,60.3,50.6,30.03,West,278,2.0,7.0,70,0.00,,,0.00,WUHU216DAVISVP2,2013-02-15 19:24:00,
2013-02-15 14:29:00,60.2,50.9,30.03,NNW,334,0.0,6.0,71,0.00,,,0.00,WUHU216DAVISVP2,2013-02-15 19:29:00,
2013-02-15 14:34:00,60.2,50.1,30.03,NNW,330,3.0,6.0,69,0.00,,,0.00,WUHU216DAVISVP2,2013-02-15 19:34:00,
2013-02-15 14:39:00,60.4,50.7,30.03,NNW,328,1.0,6.0,70,0.00,,,0.00,WUHU216DAVISVP2,2013-02-15 19:39:00,
2013-02-15 14:44:00,60.7,50.6,30.02,West,263,1.0,6.0,69,0.00,,,0.00,WUHU216DAVISVP2,2013-02-15 19:44:00,
2013-02-15 14:49:00,60.6,50.9,30.02,WNW,295,0.0,6.0,70,0.00,,,0.00,WUHU216DAVISVP2,2013-02-15 19:49:00,
2013-02-15 14:54:00,60.3,50.6,30.02,SSW,194,2.0,10.0,70,0.00,,,0.00,WUHU216DAVISVP2,2013-02-15 19:54:00,
2013-02-15 14:59:00,60.1,50.4,30.02,NW,319,1.0,10.0,70,0.00,,,0.00,WUHU216DAVISVP2,2013-02-15 19:59:00,
2013-02-15 15:04:00,60.0,49.9,30.02,NNW,329,3.0,6.0,69,0.00,,,0.00,WUHU216DAVISVP2,2013-02-15 20:04:00,
2013-02-15 15:09:00,60.0,49.9,30.01,West,272,3.0,9.0,69,0.00,,,0.00,WUHU216DAVISVP2,2013-02-15 20:09:00,
2013-02-15 15:14:00,59.5,49.8,30.01,NNW,329,0.0,11.0,70,0.00,,,0.00,WUHU216DAVISVP2,2013-02-15 20:14:00,
2013-02-15 15:19:00,59.5,49.8,30.01,NW,320,2.0,11.0,70,0.00,,,0.00,WUHU216DAVISVP2,2013-02-15 20:19:00,
2013-02-15 15:24:00,59.5,49.8,30.01,NW,313,2.0,5.0,70,0.00,,,0.00,WUHU216DAVISVP2,2013-02-15 20:24:00,
2013-02-15 15:29:00,59.4,49.7,30.01,NW,304,0.0,5.0,70,0.00,,,0.00,WUHU216DAVISVP2,2013-02-15 20:29:00,
2013-02-15 15:34:00,59.5,49.8,30.01,NNW,327,0.0,3.0,70,0.00,,,0.00,WUHU216DAVISVP2,2013-02-15 20:34:00,
2013-02-15 15:39:00,59.5,49.8,30.01,NNW,334,3.0,6.0,70,0.00,,,0.00,WUHU216DAVISVP2,2013-02-15 20:39:00,
2013-02-15 15:44:00,59.5,49.8,30.00,NW,322,0.0,6.0,70,0.00,,,0.00,WUHU216DAVISVP2,2013-02-15 20:44:00,
2013-02-15 15:49:00,59.3,49.3,30.00,NW,325,0.0,7.0,69,0.00,,,0.00,WUHU216DAVISVP2,2013-02-15 20:49:00,
2013-02-15 15:54:00,58.9,50.0,30.00,NNW,334,0.0,7.0,72,0.00,,,0.00,WUHU216DAVISVP2,2013-02-15 20:54:00,
2013-02-15 15:59:00,58.7,49.4,30.00,NW,323,2.0,5.0,71,0.00,,,0.00,WUHU216DAVISVP2,2013-02-15 20:59:00,
2013-02-15 16:04:00,58.6,48.6,30.00,NW,325,0.0,5.0,69,0.00,,,0.00,WUHU216DAVISVP2,2013-02-15 21:04:00,
2013-02-15 16:09:00,58.5,48.5,30.00,NW,311,1.0,6.0,69,0.00,,,0.00,WUHU216DAVISVP2,2013-02-15 21:09:00,
2013-02-15 16:14:00,58.4,49.2,30.00,NNW,337,0.0,6.0,71,0.00,,,0.00,WUHU216DAVISVP2,2013-02-15 21:14:00,
2013-02-15 16:19:00,58.4,49.2,30.00,NW,323,2.0,5.0,71,0.00,,,0.00,WUHU216DAVISVP2,2013-02-15 21:19:00,
2013-02-15 16:24:00,58.3,48.7,30.00,NW,325,3.0,4.0,70,0.00,,,0.00,WUHU216DAVISVP2,2013-02-15 21:24:00,
2013-02-15 16:29:00,58.1,48.5,30.00,NW,326,0.0,6.0,70,0.00,,,0.00,WUHU216DAVISVP2,2013-02-15 21:29:00,
2013-02-15 16:34:00,58.0,49.1,30.00,NNW,332,0.0,6.0,72,0.00,,,0.00,WUHU216DAVISVP2,2013-02-15 21:34:00,
2013-02-15 16:39:00,57.9,49.0,30.00,NNW,340,0.0,5.0,72,0.00,,,0.00,WUHU216DAVISVP2,2013-02-15 21:39:00,
2013-02-15 16:44:00,57.9,49.4,30.00,NNW,327,0.0,7.0,73,0.00,,,0.00,WUHU216DAVISVP2,2013-02-15 21:44:00,
2013-02-15 16:49:00,57.9,49.4,30.00,NW,326,0.0,7.0,73,0.00,,,0.00,WUHU216DAVISVP2,2013-02-15 21:49:00,
2013-02-15 16:54:00,57.8,49.3,30.00,ENE,68,0.0,1.0,73,0.00,,,0.00,WUHU216DAVISVP2,2013-02-15 21:54:00,
2013-02-15 16:59:00,57.8,49.3,30.00,WNW,288,0.0,1.0,73,0.00,,,0.00,WUHU216DAVISVP2,2013-02-15 21:59:00,
2013-02-15 17:04:00,57.8,49.7,30.00,NW,309,0.0,1.0,74,0.00,,,0.00,WUHU216DAVISVP2,2013-02-15 22:04:00,
2013-02-15 17:09:00,57.8,49.7,30.00,NW,309,0.0,1.0,74,0.00,,,0.00,WUHU216DAVISVP2,2013-02-15 22:09:00,
2013-02-15 17:14:00,57.8,49.7,30.00,NW,306,0.0,3.0,74,0.00,,,0.00,WUHU216DAVISVP2,2013-02-15 22:14:00,
2013-02-15 17:19:00,57.8,49.7,30.00,NW,306,0.0,3.0,74,0.00,,,0.00,WUHU216DAVISVP2,2013-02-15 22:19:00,
2013-02-15 17:24:00,57.7,49.2,30.00,SW,235,0.0,3.0,73,0.00,,,0.00,WUHU216DAVISVP2,2013-02-15 22:24:00,
2013-02-15 17:29:00,57.5,49.4,30.00,NW,309,0.0,3.0,74,0.00,,,0.00,WUHU216DAVISVP2,2013-02-15 22:29:00,
2013-02-15 17:34:00,57.5,49.4,30.00,NW,309,0.0,1.0,74,0.00,,,0.00,WUHU216DAVISVP2,2013-02-15 22:34:00,
2013-02-15 17:39:00,57.3,49.2,30.00,NW,311,0.0,1.0,74,0.00,,,0.00,WUHU216DAVISVP2,2013-02-15 22:39:00,
2013-02-15 17:44:00,57.2,49.1,30.00,NW,311,0.0,1.0,74,0.00,,,0.00,WUHU216DAVISVP2,2013-02-15 22:44:00,
2013-02-15 17:49:00,57.1,49.3,29.99,South,187,0.0,2.0,75,0.00,,,0.00,WUHU216DAVISVP2,2013-02-15 22:49:00,
2013-02-15 17:54:00,57.0,49.2,29.99,South,188,0.0,2.0,75,0.00,,,0.00,WUHU216DAVISVP2,2013-02-15 22:54:00,
2013-02-15 17:59:00,57.0,49.6,29.99,South,187,0.0,1.0,76,0.00,,,0.00,WUHU216DAVISVP2,2013-02-15 22:59:00,
2013-02-15 18:04:00,56.8,49.4,29.99,South,187,0.0,1.0,76,0.00,,,0.00,WUHU216DAVISVP2,2013-02-15 23:04:00,
2013-02-15 18:09:00,56.6,49.2,29.99,South,187,0.0,0.0,76,0.00,,,0.00,WUHU216DAVISVP2,2013-02-15 23:09:00,
2013-02-15 18:14:00,56.4,49.0,29.99,South,187,0.0,0.0,76,0.00,,,0.00,WUHU216DAVISVP2,2013-02-15 23:14:00,
2013-02-15 18:19:00,56.2,49.2,29.99,South,187,0.0,0.0,77,0.00,,,0.00,WUHU216DAVISVP2,2013-02-15 23:19:00,
2013-02-15 18:24:00,55.9,48.9,29.99,South,187,0.0,0.0,77,0.00,,,0.00,WUHU216DAVISVP2,2013-02-15 23:24:00,
2013-02-15 18:29:00,55.7,48.7,29.99,South,187,0.0,0.0,77,0.00,,,0.00,WUHU216DAVISVP2,2013-02-15 23:29:00,
2013-02-15 18:34:00,55.4,48.7,29.99,South,188,0.0,0.0,78,0.00,,,0.00,WUHU216DAVISVP2,2013-02-15 23:34:00,
2013-02-15 18:39:00,55.2,48.5,30.00,South,188,0.0,0.0,78,0.00,,,0.00,WUHU216DAVISVP2,2013-02-15 23:39:00,
2013-02-15 18:44:00,55.0,48.3,30.00,South,188,0.0,0.0,78,0.00,,,0.00,WUHU216DAVISVP2,2013-02-15 23:44:00,
2013-02-15 18:49:00,54.7,48.4,29.99,South,188,0.0,0.0,79,0.00,,,0.00,WUHU216DAVISVP2,2013-02-15 23:49:00,
2013-02-15 18:54:00,54.5,48.2,29.99,South,188,0.0,0.0,79,0.00,,,0.00,WUHU216DAVISVP2,2013-02-15 23:54:00,
2013-02-15 18:59:00,54.3,48.3,29.99,South,188,0.0,0.0,80,0.00,,,0.00,WUHU216DAVISVP2,2013-02-15 23:59:00,
2013-02-15 19:04:00,54.1,48.1,30.00,South,188,0.0,0.0,80,0.00,,,0.00,WUHU216DAVISVP2,2013-02-16 00:04:00,
2013-02-15 19:09:00,54.1,48.1,30.00,South,188,0.0,0.0,80,0.00,,,0.00,WUHU216DAVISVP2,2013-02-16 00:09:00,
2013-02-15 19:14:00,53.9,47.9,30.00,South,188,0.0,0.0,80,0.00,,,0.00,WUHU216DAVISVP2,2013-02-16 00:14:00,
2013-02-15 19:19:00,53.8,48.1,30.00,South,188,0.0,0.0,81,0.00,,,0.00,WUHU216DAVISVP2,2013-02-16 00:19:00,
2013-02-15 19:24:00,53.6,47.9,30.00,South,188,0.0,0.0,81,0.00,,,0.00,WUHU216DAVISVP2,2013-02-16 00:24:00,
2013-02-15 19:29:00,53.5,47.8,30.00,South,188,0.0,0.0,81,0.00,,,0.00,WUHU216DAVISVP2,2013-02-16 00:29:00,
2013-02-15 19:34:00,53.4,47.7,30.00,South,188,0.0,0.0,81,0.00,,,0.00,WUHU216DAVISVP2,2013-02-16 00:34:00,
2013-02-15 19:39:00,53.3,47.6,30.00,South,188,0.0,0.0,81,0.00,,,0.00,WUHU216DAVISVP2,2013-02-16 00:39:00,
2013-02-15 19:44:00,53.1,47.8,30.00,South,188,0.0,0.0,82,0.00,,,0.00,WUHU216DAVISVP2,2013-02-16 00:44:00,
2013-02-15 19:49:00,53.0,47.7,30.00,South,188,0.0,0.0,82,0.00,,,0.00,WUHU216DAVISVP2,2013-02-16 00:49:00,
2013-02-15 19:54:00,52.7,47.4,30.00,South,188,0.0,0.0,82,0.00,,,0.00,WUHU216DAVISVP2,2013-02-16 00:54:00,
2013-02-15 19:59:00,52.5,47.2,30.00,South,188,0.0,0.0,82,0.00,,,0.00,WUHU216DAVISVP2,2013-02-16 00:59:00,
2013-02-15 20:04:00,52.3,47.3,30.00,South,188,0.0,0.0,83,0.00,,,0.00,WUHU216DAVISVP2,2013-02-16 01:04:00,
2013-02-15 20:09:00,52.1,47.4,30.00,South,188,0.0,0.0,84,0.00,,,0.00,WUHU216DAVISVP2,2013-02-16 01:09:00,
2013-02-15 20:14:00,51.8,46.8,30.00,South,188,0.0,0.0,83,0.00,,,0.00,WUHU216DAVISVP2,2013-02-16 01:14:00,
2013-02-15 20:19:00,51.6,46.9,30.00,South,188,0.0,0.0,84,0.00,,,0.00,WUHU216DAVISVP2,2013-02-16 01:19:00,
2013-02-15 20:24:00,51.3,46.6,30.00,South,188,0.0,0.0,84,0.00,,,0.00,WUHU216DAVISVP2,2013-02-16 01:24:00,
2013-02-15 20:29:00,51.0,46.6,30.00,South,188,0.0,0.0,85,0.00,,,0.00,WUHU216DAVISVP2,2013-02-16 01:29:00,
2013-02-15 20:34:00,50.8,46.4,30.01,South,188,0.0,0.0,85,0.00,,,0.00,WUHU216DAVISVP2,2013-02-16 01:34:00,
2013-02-15 20:39:00,50.6,46.3,30.00,South,188,0.0,0.0,85,0.00,,,0.00,WUHU216DAVISVP2,2013-02-16 01:39:00,
2013-02-15 20:44:00,50.3,46.3,30.00,South,188,0.0,0.0,86,0.00,,,0.00,WUHU216DAVISVP2,2013-02-16 01:44:00,
2013-02-15 20:49:00,50.1,46.1,30.00,South,188,0.0,0.0,86,0.00,,,0.00,WUHU216DAVISVP2,2013-02-16 01:49:00,
2013-02-15 20:54:00,49.9,46.2,30.00,South,188,0.0,0.0,87,0.00,,,0.00,WUHU216DAVISVP2,2013-02-16 01:54:00,
2013-02-15 20:59:00,49.7,46.0,30.00,South,188,0.0,0.0,87,0.00,,,0.00,WUHU216DAVISVP2,2013-02-16 01:59:00,
2013-02-15 21:04:00,49.4,46.0,30.00,South,188,0.0,0.0,88,0.00,,,0.00,WUHU216DAVISVP2,2013-02-16 02:04:00,
2013-02-15 21:09:00,49.2,45.8,30.01,South,188,0.0,0.0,88,0.00,,,0.00,WUHU216DAVISVP2,2013-02-16 02:09:00,
2013-02-15 21:14:00,48.9,45.8,30.01,South,188,0.0,0.0,89,0.00,,,0.00,WUHU216DAVISVP2,2013-02-16 02:14:00,
2013-02-15 21:19:00,48.7,45.6,30.01,South,188,0.0,0.0,89,0.00,,,0.00,WUHU216DAVISVP2,2013-02-16 02:19:00,
2013-02-15 21:24:00,48.7,45.9,30.01,South,188,0.0,0.0,90,0.00,,,0.00,WUHU216DAVISVP2,2013-02-16 02:24:00,
2013-02-15 21:29:00,48.6,45.8,30.01,South,188,0.0,0.0,90,0.00,,,0.00,WUHU216DAVISVP2,2013-02-16 02:29:00,
2013-02-15 21:34:00,48.4,45.6,30.01,South,188,0.0,0.0,90,0.00,,,0.00,WUHU216DAVISVP2,2013-02-16 02:34:00,
2013-02-15 21:39:00,48.2,45.4,30.01,South,188,0.0,0.0,90,0.00,,,0.00,WUHU216DAVISVP2,2013-02-16 02:39:00,
2013-02-15 21:44:00,48.1,45.6,30.01,South,188,0.0,0.0,91,0.00,,,0.00,WUHU216DAVISVP2,2013-02-16 02:44:00,
2013-02-15 21:49:00,48.1,45.8,30.01,South,188,0.0,0.0,92,0.00,,,0.00,WUHU216DAVISVP2,2013-02-16 02:49:00,
2013-02-15 21:54:00,48.0,45.5,30.00,South,188,0.0,0.0,91,0.00,,,0.00,WUHU216DAVISVP2,2013-02-16 02:54:00,
2013-02-15 21:59:00,47.8,45.3,30.01,South,188,0.0,0.0,91,0.00,,,0.00,WUHU216DAVISVP2,2013-02-16 02:59:00,
2013-02-15 22:04:00,47.7,45.4,30.01,South,188,0.0,0.0,92,0.00,,,0.00,WUHU216DAVISVP2,2013-02-16 03:04:00,
2013-02-15 22:09:00,47.6,45.3,30.01,South,188,0.0,0.0,92,0.00,,,0.00,WUHU216DAVISVP2,2013-02-16 03:09:00,
2013-02-15 22:14:00,47.5,45.2,30.01,South,188,0.0,0.0,92,0.00,,,0.00,WUHU216DAVISVP2,2013-02-16 03:14:00,
2013-02-15 22:19:00,47.6,45.6,30.01,South,188,0.0,0.0,93,0.00,,,0.00,WUHU216DAVISVP2,2013-02-16 03:19:00,
2013-02-15 22:24:00,47.4,45.4,30.00,South,188,0.0,0.0,93,0.00,,,0.00,WUHU216DAVISVP2,2013-02-16 03:24:00,
2013-02-15 22:29:00,47.3,45.3,30.00,South,188,0.0,0.0,93,0.00,,,0.00,WUHU216DAVISVP2,2013-02-16 03:29:00,
2013-02-15 22:34:00,47.2,45.2,30.00,South,188,0.0,0.0,93,0.00,,,0.00,WUHU216DAVISVP2,2013-02-16 03:34:00,
2013-02-15 22:39:00,47.2,45.2,30.00,South,188,0.0,0.0,93,0.00,,,0.00,WUHU216DAVISVP2,2013-02-16 03:39:00,
2013-02-15 22:44:00,47.1,45.1,30.00,South,188,0.0,0.0,93,0.00,,,0.00,WUHU216DAVISVP2,2013-02-16 03:44:00,
2013-02-15 22:49:00,47.1,45.1,30.00,South,188,0.0,0.0,93,0.00,,,0.00,WUHU216DAVISVP2,2013-02-16 03:49:00,
2013-02-15 22:54:00,47.0,45.0,29.99,South,188,0.0,0.0,93,0.00,,,0.00,WUHU216DAVISVP2,2013-02-16 03:54:00,
2013-02-15 22:59:00,46.9,44.9,29.99,South,188,0.0,0.0,93,0.00,,,0.00,WUHU216DAVISVP2,2013-02-16 03:59:00,
2013-02-15 23:04:00,46.7,44.7,29.99,South,188,0.0,0.0,93,0.00,,,0.00,WUHU216DAVISVP2,2013-02-16 04:04:00,
2013-02-15 23:09:00,46.6,44.6,29.99,South,188,0.0,0.0,93,0.00,,,0.00,WUHU216DAVISVP2,2013-02-16 04:09:00,
2013-02-15 23:14:00,46.5,44.5,29.99,South,188,0.0,0.0,93,0.00,,,0.00,WUHU216DAVISVP2,2013-02-16 04:14:00,
2013-02-15 23:19:00,46.3,44.3,29.99,South,188,0.0,0.0,93,0.00,,,0.00,WUHU216DAVISVP2,2013-02-16 04:19:00,
2013-02-15 23:24:00,46.2,44.2,29.99,South,188,0.0,0.0,93,0.00,,,0.00,WUHU216DAVISVP2,2013-02-16 04:24:00,
2013-02-15 23:29:00,46.1,44.1,29.99,South,188,0.0,0.0,93,0.00,,,0.00,WUHU216DAVISVP2,2013-02-16 04:29:00,
2013-02-15 23:34:00,46.0,44.3,29.99,South,188,0.0,0.0,94,0.00,,,0.00,WUHU216DAVISVP2,2013-02-16 04:34:00,
2013-02-15 23:39:00,45.8,44.1,29.99,South,188,0.0,0.0,94,0.00,,,0.00,WUHU216DAVISVP2,2013-02-16 04:39:00,
2013-02-15 23:44:00,45.7,44.0,29.98,South,188,0.0,0.0,94,0.00,,,0.00,WUHU216DAVISVP2,2013-02-16 04:44:00,
2013-02-15 23:49:00,45.7,44.0,29.99,South,188,0.0,0.0,94,0.00,,,0.00,WUHU216DAVISVP2,2013-02-16 04:49:00,
2013-02-15 23:54:00,45.7,44.0,29.99,South,188,0.0,0.0,94,0.00,,,0.00,WUHU216DAVISVP2,2013-02-16 04:54:00,
2013-02-15 23:59:00,45.6,43.9,29.98,South,188,0.0,0.0,94,0.00,,,0.00,WUHU216DAVISVP2,2013-02-16 04:59:00,